Location: Newark
(45.5000°N, 11.4167°E)
Time: 14:51:23
(UTC+00:00)

Altair - Pass Details

Date: 03 September 2019
Orbit: 1501 x 1683 km, 47.2° (Epoch: 19 September)

Event Time Altitude Azimuth Distance (km) Brightness Sun altitude
Exits shadow 00:28:34 75° 231° (SW) 1,685 7.4 -34.2°
Maximum altitude 00:29:38 85° 160° (SSE) 1,638 7.4 -34.1°
Drops below altitude 10° 00:39:21 10° 74° (ENE) 3,788 10.0 -33.4°
Sets 00:42:22 0° 74° (ENE) 4,750 10.6 -33.2°
